Miscellaneous Local Product
Issued by NWS Hastings, NE

Home | Current Version | Previous Version | Graphics & Text | Print | Product List | Glossary On
Versions: 1 2 3 4 5 6 7 8 9 10 11 12 13 14 15 16 17 18 19 20 21 22 23 24 25 26 27 28 29 30 31 32 33 34 35 36 37 38 39 40 41 42 43 44 45 46 47 48 49 50
000
AXUS43 KGID 261202
MISGRI

GID CWA HOURLY WEATHER ROUNDUP
NATIONAL WEATHER SERVICE HASTINGS NE
700 AM CDT FRI MAY 26 2017

NOTE: "FAIR" INDICATES FEW OR NO CLOUDS BELOW 12,000 FEET WITH NO
SIGNIFICANT WEATHER AND/OR OBSTRUCTIONS TO VISIBILITY.

...SOUTH CENTRAL NEBRASKA...

CITY           SKY/WX    TMP DP  RH WIND       PRES   REMARKS
GRAND ISLAND   CLOUDY    57  47  69 N17       29.79R
HASTINGS       CLOUDY    59  48  67 N17       29.79R
KEARNEY        PTCLDY    55  43  62 N17       29.81R
ORD            MOCLDY    54  42  64 N14       29.82R
YORK           MOCLDY    59  55  88 N12       29.75R
AURORA         CLOUDY    59  49  69 N18G25    29.78R
LEXINGTON      CLEAR     55  44  67 N16       29.84R
HOLDREGE       CLEAR     55  44  64 N16       29.81R
HEBRON         PTCLDY    61  59  91 NW7       29.73R

...NEBRASKA PANHANDLE...

CITY           SKY/WX    TMP DP  RH WIND       PRES   REMARKS
CHADRON        PTCLDY    46  38  73 W14       29.92R
ALLIANCE       CLEAR     36  34  92 W5        29.92R WCI  32
SCOTTSBLUFF    CLEAR     40  36  86 NW7       29.95R
SIDNEY         PTCLDY    42  40  92 NW8       29.96R

...WESTERN AND NORTH CENTRAL NEBRASKA...

CITY           SKY/WX    TMP DP  RH WIND       PRES   REMARKS
VALENTINE      CLEAR     44  38  79 SW5       29.87R
AINSWORTH      PTCLDY    49  42  78 NW5       29.87R
ONEILL         CLOUDY    54  43  67 NW9       29.84R
BROKEN BOW     CLEAR     53  44  71 N18       29.84R
IMPERIAL       CLOUDY    50  44  80 N9        29.92R
NORTH PLATTE   CLOUDY    52  44  74 N7        29.89R
MCCOOK         PTCLDY    56  47  71 N8        29.88R

...EASTERN NEBRASKA...

CITY           SKY/WX    TMP DP  RH WIND       PRES   REMARKS
NORFOLK        CLOUDY    57  45  64 NW14      29.77R
SO SIOUX CITY  CLOUDY    59  55  87 NW12      29.72R
TEKAMAH        LGT RAIN  60  57  89 NW6       29.71R
ALBION         CLOUDY    57  45  65 NW13G18   29.79R
OMAHA EPPLEY   CLOUDY    63  57  81 SE3       29.69R
OFFUTT AFB     CLOUDY    61  58  91 NE3       29.68R
MILLARD        CLOUDY    64  60  88 CALM      29.68S
LINCOLN        CLOUDY    63  58  83 NW7       29.72R
NEBRASKA CITY  MOCLDY    61  56  83 CALM      29.69R
BEATRICE       PTCLDY    59  58  97 NW3       29.71R
FALLS CITY     PTCLDY    58  57  97 NW3       29.69R

...NORTHERN KANSAS...

CITY           SKY/WX    TMP DP  RH WIND       PRES   REMARKS
GOODLAND       CLOUDY    54  51  90 W10       29.90R
HILL CITY      CLEAR     59  55  87 NW7       29.80R
NORTON         SUNNY     55  50  82 NW12      29.83R
PHILLIPSBURG   CLEAR     59  57  94 NW10      29.79R
SMITH CENTER   PTCLDY    57  55  94 N9        29.76R
HAYS           CLEAR     56  53  90 NW13      29.77R
RUSSELL        CLEAR     56  53  90 NW6       29.72R
CONCORDIA      CLEAR     59  58  96 NW6       29.72R
SALINA         CLEAR     61  58  90 CALM      29.71R
TOPEKA         CLEAR     61  61 100 SE3       29.69R



USA.gov is the U.S. government's official web portal to all federal, state and local government web resources and services.